Time,TemperatureF,DewpointF,PressureIn,WindDirection,WindDirectionDegrees,WindSpeedMPH,WindSpeedGustMPH,Humidity,HourlyPrecipIn,Conditions,Clouds,dailyrainin,SoftwareType,DateUTC
2013-07-07 00:00:00,74.6,43.6,29.76,East,80,0.0,0.0,33,0.00,,,0.01,Wunderground v.1.15,2013-07-07 06:00:00,
2013-07-07 00:02:00,74.6,43.6,29.76,East,80,0.0,0.0,33,0.00,,,0.00,Wunderground v.1.15,2013-07-07 06:02:00,
2013-07-07 00:06:00,74.4,43.4,29.76,East,80,0.0,0.0,33,0.00,,,0.00,Wunderground v.1.15,2013-07-07 06:06:00,
2013-07-07 00:08:00,74.4,44.2,29.76,East,80,0.0,0.0,34,0.00,,,0.00,Wunderground v.1.15,2013-07-07 06:08:00,
2013-07-07 00:12:00,74.2,44.8,29.76,East,80,0.0,0.0,35,0.00,,,0.00,Wunderground v.1.15,2013-07-07 06:12:00,
2013-07-07 00:14:00,74.2,44.0,29.76,East,80,0.0,0.0,34,0.00,,,0.00,Wunderground v.1.15,2013-07-07 06:14:00,
2013-07-07 00:18:00,74.0,44.6,29.75,East,80,0.0,0.0,35,0.00,,,0.00,Wunderground v.1.15,2013-07-07 06:18:00,
2013-07-07 00:20:00,73.9,44.5,29.75,East,80,0.0,0.0,35,0.00,,,0.00,Wunderground v.1.15,2013-07-07 06:20:00,
2013-07-07 00:24:00,73.9,45.3,29.75,East,80,0.0,0.0,36,0.00,,,0.00,Wunderground v.1.15,2013-07-07 06:24:00,
2013-07-07 00:26:00,73.7,45.1,29.75,East,80,0.0,1.0,36,0.00,,,0.00,Wunderground v.1.15,2013-07-07 06:26:00,
2013-07-07 00:28:00,73.7,45.8,29.75,East,80,0.0,1.0,37,0.00,,,0.00,Wunderground v.1.15,2013-07-07 06:28:00,
2013-07-07 00:32:00,73.5,46.3,29.76,East,80,0.0,0.0,38,0.00,,,0.00,Wunderground v.1.15,2013-07-07 06:32:00,
2013-07-07 00:34:00,73.3,46.2,29.76,East,80,0.0,0.0,38,0.00,,,0.00,Wunderground v.1.15,2013-07-07 06:34:00,
2013-07-07 00:36:00,73.3,46.2,29.76,East,80,0.0,0.0,38,0.00,,,0.00,Wunderground v.1.15,2013-07-07 06:36:00,
2013-07-07 00:40:00,73.2,46.8,29.76,East,80,0.0,0.0,39,0.00,,,0.00,Wunderground v.1.15,2013-07-07 06:40:00,
2013-07-07 00:42:00,73.0,46.6,29.76,East,80,0.0,0.0,39,0.00,,,0.00,Wunderground v.1.15,2013-07-07 06:42:00,
2013-07-07 00:46:00,72.8,46.4,29.77,East,80,0.0,0.0,39,0.00,,,0.00,Wunderground v.1.15,2013-07-07 06:46:00,
2013-07-07 00:48:00,72.8,46.4,29.77,East,80,0.0,1.0,39,0.00,,,0.00,Wunderground v.1.15,2013-07-07 06:48:00,
2013-07-07 00:52:00,72.7,47.6,29.77,South,182,0.0,1.0,41,0.00,,,0.00,Wunderground v.1.15,2013-07-07 06:52:00,
2013-07-07 00:54:00,72.5,46.8,29.77,South,182,1.0,1.0,40,0.00,,,0.00,Wunderground v.1.15,2013-07-07 06:54:00,
2013-07-07 00:56:00,72.5,46.8,29.77,South,182,1.0,1.0,40,0.00,,,0.00,Wunderground v.1.15,2013-07-07 06:56:00,
2013-07-07 01:02:00,72.3,46.6,29.78,South,182,0.0,1.0,40,0.00,,,0.00,Wunderground v.1.15,2013-07-07 07:02:00,
2013-07-07 01:04:00,72.3,47.3,29.78,South,182,0.0,1.0,41,0.00,,,0.00,Wunderground v.1.15,2013-07-07 07:04:00,
2013-07-07 01:08:00,72.3,46.6,29.78,South,182,0.0,1.0,40,0.00,,,0.00,Wunderground v.1.15,2013-07-07 07:08:00,
2013-07-07 01:10:00,72.3,46.6,29.78,South,182,0.0,0.0,40,0.00,,,0.00,Wunderground v.1.15,2013-07-07 07:10:00,
2013-07-07 01:14:00,72.5,48.1,29.78,ESE,108,0.0,4.0,42,0.00,,,0.00,Wunderground v.1.15,2013-07-07 07:14:00,
2013-07-07 01:16:00,72.3,47.9,29.76,ESE,116,1.0,4.0,42,0.00,,,0.00,Wunderground v.1.15,2013-07-07 07:16:00,
2013-07-07 01:18:00,72.3,48.5,29.76,ESE,115,1.0,4.0,43,0.00,,,0.00,Wunderground v.1.15,2013-07-07 07:18:00,
2013-07-07 01:20:00,72.1,47.7,29.76,ESE,115,1.0,3.0,42,0.00,,,0.00,Wunderground v.1.15,2013-07-07 07:20:00,
2013-07-07 01:22:00,72.1,46.4,29.76,ESE,115,1.0,3.0,40,0.00,,,0.00,Wunderground v.1.15,2013-07-07 07:22:00,
2013-07-07 01:26:00,72.1,45.8,29.76,ESE,116,1.0,3.0,39,0.00,,,0.00,Wunderground v.1.15,2013-07-07 07:26:00,
2013-07-07 01:28:00,72.1,46.4,29.76,ESE,117,1.0,3.0,40,0.00,,,0.00,Wunderground v.1.15,2013-07-07 07:28:00,
2013-07-07 01:30:00,72.1,46.4,29.76,ESE,117,1.0,1.0,40,0.00,,,0.00,Wunderground v.1.15,2013-07-07 07:30:00,
2013-07-07 01:32:00,72.1,47.1,29.76,ESE,117,0.0,1.0,41,0.00,,,0.00,Wunderground v.1.15,2013-07-07 07:32:00,
2013-07-07 01:34:00,72.0,47.6,29.76,ESE,117,0.0,1.0,42,0.00,,,0.00,Wunderground v.1.15,2013-07-07 07:34:00,
2013-07-07 01:38:00,71.6,47.9,29.76,ESE,117,0.0,1.0,43,0.00,,,0.00,Wunderground v.1.15,2013-07-07 07:38:00,
2013-07-07 01:40:00,71.5,47.8,29.76,ESE,117,0.0,0.0,43,0.00,,,0.00,Wunderground v.1.15,2013-07-07 07:40:00,
2013-07-07 01:42:00,71.3,47.6,29.76,ESE,117,0.0,0.0,43,0.00,,,0.00,Wunderground v.1.15,2013-07-07 07:42:00,
2013-07-07 01:44:00,71.1,46.8,29.76,ESE,117,0.0,0.0,42,0.00,,,0.00,Wunderground v.1.15,2013-07-07 07:44:00,
2013-07-07 01:46:00,70.9,46.7,29.78,ESE,116,0.0,0.0,42,0.00,,,0.00,Wunderground v.1.15,2013-07-07 07:46:00,
2013-07-07 01:48:00,70.9,47.3,29.78,ESE,113,0.0,3.0,43,0.00,,,0.00,Wunderground v.1.15,2013-07-07 07:48:00,
2013-07-07 01:52:00,70.8,47.2,29.78,SSE,154,1.0,1.0,43,0.00,,,0.00,Wunderground v.1.15,2013-07-07 07:52:00,
2013-07-07 01:54:00,70.8,47.2,29.78,SSE,154,1.0,2.0,43,0.00,,,0.00,Wunderground v.1.15,2013-07-07 07:54:00,
2013-07-07 01:58:00,70.8,47.2,29.78,SE,134,1.0,2.0,43,0.00,,,0.00,Wunderground v.1.15,2013-07-07 07:58:00,
2013-07-07 02:02:00,70.8,47.2,29.78,SE,142,1.0,1.0,43,0.00,,,0.00,Wunderground v.1.15,2013-07-07 08:02:00,
2013-07-07 02:04:00,70.8,47.2,29.78,SE,142,1.0,1.0,43,0.00,,,0.00,Wunderground v.1.15,2013-07-07 08:04:00,
2013-07-07 02:08:00,70.6,47.0,29.78,ESE,119,0.0,1.0,43,0.00,,,0.00,Wunderground v.1.15,2013-07-07 08:08:00,
2013-07-07 02:10:00,70.6,47.0,29.78,ESE,119,0.0,2.0,43,0.00,,,0.00,Wunderground v.1.15,2013-07-07 08:10:00,
2013-07-07 02:14:00,70.4,47.4,29.78,ESE,117,0.0,2.0,44,0.00,,,0.00,Wunderground v.1.15,2013-07-07 08:14:00,
2013-07-07 02:18:00,70.3,47.3,29.76,ESE,117,0.0,2.0,44,0.00,,,0.00,Wunderground v.1.15,2013-07-07 08:18:00,
2013-07-07 02:20:00,70.3,47.3,29.76,ESE,118,0.0,1.0,44,0.00,,,0.00,Wunderground v.1.15,2013-07-07 08:20:00,
2013-07-07 02:22:00,70.3,47.3,29.76,SE,128,0.0,4.0,44,0.00,,,0.00,Wunderground v.1.15,2013-07-07 08:22:00,
2013-07-07 02:24:00,70.3,47.3,29.76,ESE,107,1.0,4.0,44,0.00,,,0.00,Wunderground v.1.15,2013-07-07 08:24:00,
2013-07-07 02:26:00,70.3,47.3,29.76,ESE,107,1.0,4.0,44,0.00,,,0.00,Wunderground v.1.15,2013-07-07 08:26:00,
2013-07-07 02:30:00,70.3,46.7,29.76,ESE,107,1.0,1.0,43,0.00,,,0.00,Wunderground v.1.15,2013-07-07 08:30:00,
2013-07-07 02:32:00,70.3,46.7,29.76,ESE,108,1.0,1.0,43,0.00,,,0.00,Wunderground v.1.15,2013-07-07 08:32:00,
2013-07-07 02:34:00,70.3,46.7,29.76,ESE,108,0.0,1.0,43,0.00,,,0.00,Wunderground v.1.15,2013-07-07 08:34:00,
2013-07-07 02:38:00,70.4,47.4,29.76,ESE,113,0.0,1.0,44,0.00,,,0.00,Wunderground v.1.15,2013-07-07 08:38:00,
2013-07-07 02:40:00,70.4,47.4,29.76,ESE,115,1.0,1.0,44,0.00,,,0.00,Wunderground v.1.15,2013-07-07 08:40:00,
2013-07-07 02:44:00,70.3,47.9,29.76,ESE,117,1.0,3.0,45,0.00,,,0.00,Wunderground v.1.15,2013-07-07 08:44:00,
2013-07-07 02:48:00,70.3,47.9,29.75,ESE,117,1.0,4.0,45,0.00,,,0.00,Wunderground v.1.15,2013-07-07 08:48:00,
2013-07-07 02:50:00,70.3,47.9,29.75,ESE,122,1.0,1.0,45,0.00,,,0.00,Wunderground v.1.15,2013-07-07 08:50:00,
2013-07-07 02:52:00,70.3,47.9,29.75,ESE,123,1.0,1.0,45,0.00,,,0.00,Wunderground v.1.15,2013-07-07 08:52:00,
2013-07-07 02:54:00,70.1,47.8,29.75,East,94,1.0,2.0,45,0.00,,,0.00,Wunderground v.1.15,2013-07-07 08:54:00,
2013-07-07 02:56:00,70.1,48.4,29.75,East,94,1.0,2.0,46,0.00,,,0.00,Wunderground v.1.15,2013-07-07 08:56:00,
2013-07-07 03:00:00,69.9,48.2,29.75,ESE,118,0.0,0.0,46,0.00,,,0.00,Wunderground v.1.15,2013-07-07 09:00:00,
2013-07-07 03:02:00,69.8,48.1,29.75,ESE,118,0.0,0.0,46,0.00,,,0.00,Wunderground v.1.15,2013-07-07 09:02:00,
2013-07-07 03:06:00,69.6,47.9,29.75,ESE,107,0.0,0.0,46,0.00,,,0.00,Wunderground v.1.15,2013-07-07 09:06:00,
2013-07-07 03:08:00,69.6,47.9,29.75,ESE,119,0.0,0.0,46,0.00,,,0.00,Wunderground v.1.15,2013-07-07 09:08:00,
2013-07-07 03:10:00,69.6,48.5,29.75,ESE,119,0.0,0.0,47,0.00,,,0.00,Wunderground v.1.15,2013-07-07 09:10:00,
2013-07-07 03:14:00,69.4,48.3,29.75,ESE,119,0.0,0.0,47,0.00,,,0.00,Wunderground v.1.15,2013-07-07 09:14:00,
2013-07-07 03:16:00,69.4,48.3,29.76,ESE,119,0.0,0.0,47,0.00,,,0.00,Wunderground v.1.15,2013-07-07 09:16:00,
2013-07-07 03:18:00,69.4,48.3,29.76,ESE,120,0.0,0.0,47,0.00,,,0.00,Wunderground v.1.15,2013-07-07 09:18:00,
2013-07-07 03:20:00,69.3,48.8,29.76,ESE,119,0.0,0.0,48,0.00,,,0.00,Wunderground v.1.15,2013-07-07 09:20:00,
2013-07-07 03:22:00,69.3,48.8,29.76,SE,126,1.0,3.0,48,0.00,,,0.00,Wunderground v.1.15,2013-07-07 09:22:00,
2013-07-07 03:28:00,68.9,48.4,29.76,SE,126,1.0,3.0,48,0.00,,,0.00,Wunderground v.1.15,2013-07-07 09:28:00,
2013-07-07 03:32:00,68.8,48.3,29.76,SE,126,0.0,1.0,48,0.00,,,0.00,Wunderground v.1.15,2013-07-07 09:32:00,
2013-07-07 03:34:00,68.8,48.3,29.76,SE,126,0.0,1.0,48,0.00,,,0.00,Wunderground v.1.15,2013-07-07 09:34:00,
2013-07-07 03:36:00,68.6,48.7,29.76,SE,126,0.0,1.0,49,0.00,,,0.00,Wunderground v.1.15,2013-07-07 09:36:00,
2013-07-07 03:40:00,68.4,49.0,29.76,SE,126,0.0,0.0,50,0.00,,,0.00,Wunderground v.1.15,2013-07-07 09:40:00,
2013-07-07 03:42:00,68.3,48.9,29.76,SE,126,0.0,0.0,50,0.00,,,0.00,Wunderground v.1.15,2013-07-07 09:42:00,
2013-07-07 03:44:00,68.1,48.8,29.76,SE,126,0.0,0.0,50,0.00,,,0.00,Wunderground v.1.15,2013-07-07 09:44:00,
2013-07-07 03:46:00,67.9,48.6,29.76,SE,126,0.0,0.0,50,0.00,,,0.00,Wunderground v.1.15,2013-07-07 09:46:00,
2013-07-07 03:48:00,67.9,48.6,29.76,SE,126,0.0,0.0,50,0.00,,,0.00,Wunderground v.1.15,2013-07-07 09:48:00,
2013-07-07 03:50:00,67.8,48.5,29.76,SE,126,0.0,0.0,50,0.00,,,0.00,Wunderground v.1.15,2013-07-07 09:50:00,
2013-07-07 03:52:00,67.6,48.3,29.76,SE,126,0.0,0.0,50,0.00,,,0.00,Wunderground v.1.15,2013-07-07 09:52:00,
2013-07-07 03:54:00,67.6,48.8,29.76,SE,126,0.0,0.0,51,0.00,,,0.00,Wunderground v.1.15,2013-07-07 09:54:00,
2013-07-07 03:56:00,67.4,48.6,29.76,SE,126,0.0,0.0,51,0.00,,,0.00,Wunderground v.1.15,2013-07-07 09:56:00,
2013-07-07 04:00:00,67.3,48.5,29.76,SE,128,0.0,3.0,51,0.00,,,0.00,Wunderground v.1.15,2013-07-07 10:00:00,
2013-07-07 04:02:00,67.3,48.5,29.77,SE,128,0.0,3.0,51,0.00,,,0.00,Wunderground v.1.15,2013-07-07 10:02:00,
2013-07-07 04:04:00,67.1,48.9,29.77,SE,128,0.0,3.0,52,0.00,,,0.00,Wunderground v.1.15,2013-07-07 10:04:00,
2013-07-07 04:06:00,66.9,48.7,29.77,SE,128,0.0,3.0,52,0.00,,,0.00,Wunderground v.1.15,2013-07-07 10:06:00,
2013-07-07 04:08:00,66.8,49.1,29.77,SE,128,0.0,3.0,53,0.00,,,0.00,Wunderground v.1.15,2013-07-07 10:08:00,
2013-07-07 04:12:00,66.4,48.7,29.77,SE,128,0.0,0.0,53,0.00,,,0.00,Wunderground v.1.15,2013-07-07 10:12:00,
2013-07-07 04:16:00,66.3,49.2,29.77,SE,128,0.0,0.0,54,0.00,,,0.00,Wunderground v.1.15,2013-07-07 10:16:00,
2013-07-07 04:18:00,66.1,49.0,29.77,SE,128,0.0,0.0,54,0.00,,,0.00,Wunderground v.1.15,2013-07-07 10:18:00,
2013-07-07 04:20:00,66.1,49.0,29.77,SE,128,0.0,0.0,54,0.00,,,0.00,Wunderground v.1.15,2013-07-07 10:20:00,
2013-07-07 04:22:00,66.1,49.0,29.77,SE,128,0.0,0.0,54,0.00,,,0.00,Wunderground v.1.15,2013-07-07 10:22:00,
2013-07-07 04:24:00,66.0,48.9,29.77,SE,128,0.0,0.0,54,0.00,,,0.00,Wunderground v.1.15,2013-07-07 10:24:00,
2013-07-07 04:26:00,66.0,48.4,29.77,SE,128,0.0,0.0,53,0.00,,,0.00,Wunderground v.1.15,2013-07-07 10:26:00,
2013-07-07 04:28:00,66.0,48.4,29.77,SE,128,0.0,0.0,53,0.00,,,0.00,Wunderground v.1.15,2013-07-07 10:28:00,
2013-07-07 04:32:00,66.0,48.4,29.78,SE,128,0.0,0.0,53,0.00,,,0.00,Wunderground v.1.15,2013-07-07 10:32:00,
2013-07-07 04:34:00,66.0,48.4,29.78,SE,128,0.0,0.0,53,0.00,,,0.00,Wunderground v.1.15,2013-07-07 10:34:00,
2013-07-07 04:38:00,66.0,47.9,29.78,SE,128,0.0,0.0,52,0.00,,,0.00,Wunderground v.1.15,2013-07-07 10:38:00,
2013-07-07 04:40:00,66.0,48.4,29.78,SE,128,0.0,0.0,53,0.00,,,0.00,Wunderground v.1.15,2013-07-07 10:40:00,
2013-07-07 04:42:00,66.0,48.4,29.78,SE,128,0.0,0.0,53,0.00,,,0.00,Wunderground v.1.15,2013-07-07 10:42:00,
2013-07-07 04:44:00,65.8,48.2,29.78,SE,128,0.0,0.0,53,0.00,,,0.00,Wunderground v.1.15,2013-07-07 10:44:00,
2013-07-07 04:48:00,65.8,48.2,29.78,SE,128,0.0,0.0,53,0.00,,,0.00,Wunderground v.1.15,2013-07-07 10:48:00,
2013-07-07 04:50:00,65.8,47.7,29.78,ESE,107,0.0,1.0,52,0.00,,,0.00,Wunderground v.1.15,2013-07-07 10:50:00,
2013-07-07 04:54:00,66.0,47.9,29.78,ESE,107,0.0,1.0,52,0.00,,,0.00,Wunderground v.1.15,2013-07-07 10:54:00,
2013-07-07 04:56:00,66.0,47.9,29.78,ESE,107,0.0,1.0,52,0.00,,,0.00,Wunderground v.1.15,2013-07-07 10:56:00,
2013-07-07 05:00:00,66.0,47.9,29.78,ESE,107,0.0,0.0,52,0.00,,,0.00,Wunderground v.1.15,2013-07-07 11:00:00,
2013-07-07 05:02:00,66.0,47.9,29.78,ESE,107,0.0,0.0,52,0.00,,,0.00,Wunderground v.1.15,2013-07-07 11:02:00,
2013-07-07 05:06:00,65.8,47.7,29.78,ESE,107,0.0,0.0,52,0.00,,,0.00,Wunderground v.1.15,2013-07-07 11:06:00,
2013-07-07 05:08:00,65.8,47.7,29.78,ESE,107,0.0,0.0,52,0.00,,,0.00,Wunderground v.1.15,2013-07-07 11:08:00,
2013-07-07 05:10:00,65.6,48.0,29.78,ESE,107,0.0,0.0,53,0.00,,,0.00,Wunderground v.1.15,2013-07-07 11:10:00,
2013-07-07 05:14:00,65.6,47.5,29.78,ESE,107,0.0,0.0,52,0.00,,,0.00,Wunderground v.1.15,2013-07-07 11:14:00,
2013-07-07 05:20:00,65.6,47.5,29.79,ESE,107,0.0,0.0,52,0.00,,,0.00,Wunderground v.1.15,2013-07-07 11:20:00,
2013-07-07 05:22:00,65.6,47.5,29.79,ESE,107,0.0,0.0,52,0.00,,,0.00,Wunderground v.1.15,2013-07-07 11:22:00,
2013-07-07 05:24:00,65.6,47.5,29.79,ESE,107,0.0,0.0,52,0.00,,,0.00,Wunderground v.1.15,2013-07-07 11:24:00,
2013-07-07 05:26:00,65.5,47.4,29.79,ESE,107,0.0,0.0,52,0.00,,,0.00,Wunderground v.1.15,2013-07-07 11:26:00,
2013-07-07 05:30:00,65.5,47.4,29.79,ESE,107,0.0,0.0,52,0.00,,,0.00,Wunderground v.1.15,2013-07-07 11:30:00,
2013-07-07 05:32:00,65.5,47.4,29.79,ESE,107,0.0,0.0,52,0.00,,,0.00,Wunderground v.1.15,2013-07-07 11:32:00,
2013-07-07 05:36:00,65.3,47.7,29.79,ESE,107,0.0,0.0,53,0.00,,,0.00,Wunderground v.1.15,2013-07-07 11:36:00,
2013-07-07 05:38:00,65.2,47.6,29.79,ESE,107,0.0,0.0,53,0.00,,,0.00,Wunderground v.1.15,2013-07-07 11:38:00,
2013-07-07 05:40:00,65.0,46.9,29.79,ESE,107,0.0,0.0,52,0.00,,,0.00,Wunderground v.1.15,2013-07-07 11:40:00,
2013-07-07 05:44:00,65.0,47.4,29.79,ESE,107,0.0,0.0,53,0.00,,,0.00,Wunderground v.1.15,2013-07-07 11:44:00,
2013-07-07 05:46:00,64.8,47.8,29.80,ESE,107,0.0,0.0,54,0.00,,,0.00,Wunderground v.1.15,2013-07-07 11:46:00,
2013-07-07 05:48:00,64.8,47.8,29.80,ESE,107,0.0,0.0,54,0.00,,,0.00,Wunderground v.1.15,2013-07-07 11:48:00,
2013-07-07 05:50:00,64.7,47.7,29.80,ESE,107,0.0,0.0,54,0.00,,,0.00,Wunderground v.1.15,2013-07-07 11:50:00,
2013-07-07 05:52:00,64.7,47.7,29.80,ESE,107,0.0,0.0,54,0.00,,,0.00,Wunderground v.1.15,2013-07-07 11:52:00,
2013-07-07 05:56:00,64.5,47.5,29.80,ESE,107,0.0,0.0,54,0.00,,,0.00,Wunderground v.1.15,2013-07-07 11:56:00,
2013-07-07 06:00:00,64.3,47.8,29.80,ESE,107,0.0,0.0,55,0.00,,,0.00,Wunderground v.1.15,2013-07-07 12:00:00,
2013-07-07 06:02:00,64.3,47.8,29.82,ESE,107,0.0,0.0,55,0.00,,,0.00,Wunderground v.1.15,2013-07-07 12:02:00,
2013-07-07 06:04:00,64.3,48.7,29.82,ESE,107,0.0,0.0,57,0.00,,,0.00,Wunderground v.1.15,2013-07-07 12:04:00,
2013-07-07 06:08:00,64.2,48.6,29.82,ESE,107,0.0,0.0,57,0.00,,,0.00,Wunderground v.1.15,2013-07-07 12:08:00,
2013-07-07 06:14:00,64.0,48.0,29.82,ESE,107,0.0,0.0,56,0.00,,,0.00,Wunderground v.1.15,2013-07-07 12:14:00,
2013-07-07 06:16:00,64.0,48.9,29.83,ESE,107,0.0,0.0,58,0.00,,,0.00,Wunderground v.1.15,2013-07-07 12:16:00,
2013-07-07 06:22:00,64.0,48.5,29.83,ESE,107,0.0,0.0,57,0.00,,,0.00,Wunderground v.1.15,2013-07-07 12:22:00,
2013-07-07 06:28:00,64.0,48.5,29.83,ESE,107,0.0,0.0,57,0.00,,,0.00,Wunderground v.1.15,2013-07-07 12:28:00,
2013-07-07 06:32:00,64.0,48.5,29.84,ESE,107,0.0,2.0,57,0.00,,,0.00,Wunderground v.1.15,2013-07-07 12:32:00,
2013-07-07 06:34:00,64.0,48.9,29.84,ESE,107,0.0,2.0,58,0.00,,,0.00,Wunderground v.1.15,2013-07-07 12:34:00,
2013-07-07 06:38:00,64.0,49.4,29.84,ESE,107,0.0,2.0,59,0.00,,,0.00,Wunderground v.1.15,2013-07-07 12:38:00,
2013-07-07 06:40:00,64.0,48.9,29.84,ESE,107,0.0,0.0,58,0.00,,,0.00,Wunderground v.1.15,2013-07-07 12:40:00,
2013-07-07 06:42:00,64.0,48.9,29.84,ESE,107,0.0,0.0,58,0.00,,,0.00,Wunderground v.1.15,2013-07-07 12:42:00,
2013-07-07 06:44:00,64.0,48.9,29.84,ESE,107,0.0,0.0,58,0.00,,,0.00,Wunderground v.1.15,2013-07-07 12:44:00,
2013-07-07 06:46:00,64.0,48.9,29.84,ESE,107,0.0,0.0,58,0.00,,,0.00,Wunderground v.1.15,2013-07-07 12:46:00,
2013-07-07 06:48:00,64.0,48.9,29.84,ESE,107,0.0,0.0,58,0.00,,,0.00,Wunderground v.1.15,2013-07-07 12:48:00,
2013-07-07 06:50:00,64.0,49.4,29.84,ESE,107,0.0,0.0,59,0.00,,,0.00,Wunderground v.1.15,2013-07-07 12:50:00,
2013-07-07 06:52:00,63.9,49.3,29.84,ESE,107,0.0,0.0,59,0.00,,,0.00,Wunderground v.1.15,2013-07-07 12:52:00,
2013-07-07 06:54:00,63.9,49.3,29.84,ESE,107,0.0,0.0,59,0.00,,,0.00,Wunderground v.1.15,2013-07-07 12:54:00,
2013-07-07 07:00:00,63.7,49.1,29.84,ESE,107,0.0,0.0,59,0.00,,,0.00,Wunderground v.1.15,2013-07-07 13:00:00,
2013-07-07 07:02:00,63.7,48.6,29.84,ESE,107,0.0,0.0,58,0.00,,,0.00,Wunderground v.1.15,2013-07-07 13:02:00,
2013-07-07 07:04:00,63.7,49.1,29.84,ESE,107,0.0,0.0,59,0.00,,,0.00,Wunderground v.1.15,2013-07-07 13:04:00,
2013-07-07 07:08:00,63.7,49.1,29.84,ESE,107,0.0,0.0,59,0.00,,,0.00,Wunderground v.1.15,2013-07-07 13:08:00,
2013-07-07 07:10:00,63.7,49.1,29.84,ESE,107,0.0,0.0,59,0.00,,,0.00,Wunderground v.1.15,2013-07-07 13:10:00,
2013-07-07 07:12:00,63.7,48.6,29.84,ESE,107,0.0,0.0,58,0.00,,,0.00,Wunderground v.1.15,2013-07-07 13:12:00,
2013-07-07 07:14:00,63.5,48.9,29.84,ESE,107,0.0,0.0,59,0.00,,,0.00,Wunderground v.1.15,2013-07-07 13:14:00,
2013-07-07 07:16:00,63.7,49.1,29.85,ESE,107,0.0,0.0,59,0.00,,,0.00,Wunderground v.1.15,2013-07-07 13:16:00,
2013-07-07 07:20:00,63.7,49.5,29.85,ESE,107,0.0,0.0,60,0.00,,,0.00,Wunderground v.1.15,2013-07-07 13:20:00,
2013-07-07 07:22:00,63.9,49.7,29.85,ESE,107,0.0,0.0,60,0.00,,,0.00,Wunderground v.1.15,2013-07-07 13:22:00,
2013-07-07 07:24:00,64.2,50.0,29.85,ESE,107,0.0,0.0,60,0.00,,,0.00,Wunderground v.1.15,2013-07-07 13:24:00,
2013-07-07 07:28:00,64.8,49.7,29.85,ESE,107,0.0,0.0,58,0.00,,,0.00,Wunderground v.1.15,2013-07-07 13:28:00,
2013-07-07 07:30:00,65.3,50.1,29.85,ESE,107,0.0,0.0,58,0.00,,,0.00,Wunderground v.1.15,2013-07-07 13:30:00,
2013-07-07 07:32:00,65.6,49.5,29.86,ESE,107,0.0,1.0,56,0.00,,,0.00,Wunderground v.1.15,2013-07-07 13:32:00,
2013-07-07 07:34:00,66.1,50.4,29.86,ESE,107,0.0,1.0,57,0.00,,,0.00,Wunderground v.1.15,2013-07-07 13:34:00,
2013-07-07 07:36:00,66.4,50.7,29.86,ESE,107,0.0,1.0,57,0.00,,,0.00,Wunderground v.1.15,2013-07-07 13:36:00,
2013-07-07 07:38:00,66.6,50.4,29.86,ESE,107,0.0,1.0,56,0.00,,,0.00,Wunderground v.1.15,2013-07-07 13:38:00,
2013-07-07 07:42:00,67.3,51.1,29.86,ESE,107,0.0,0.0,56,0.00,,,0.00,Wunderground v.1.15,2013-07-07 13:42:00,
2013-07-07 07:46:00,68.1,50.3,29.85,ESE,107,0.0,1.0,53,0.00,,,0.00,Wunderground v.1.15,2013-07-07 13:46:00,
2013-07-07 07:50:00,68.8,50.5,29.85,ESE,107,1.0,2.0,52,0.00,,,0.00,Wunderground v.1.15,2013-07-07 13:50:00,
2013-07-07 07:52:00,69.1,50.2,29.85,ESE,107,1.0,2.0,51,0.00,,,0.00,Wunderground v.1.15,2013-07-07 13:52:00,
2013-07-07 07:54:00,69.3,50.4,29.85,East,87,1.0,2.0,51,0.00,,,0.00,Wunderground v.1.15,2013-07-07 13:54:00,
2013-07-07 08:00:00,70.3,50.2,29.85,East,88,1.0,1.0,49,0.00,,,0.00,Wunderground v.1.15,2013-07-07 14:00:00,
2013-07-07 08:02:00,70.4,49.2,29.84,East,87,0.0,1.0,47,0.00,,,0.00,Wunderground v.1.15,2013-07-07 14:02:00,
2013-07-07 08:06:00,70.4,49.2,29.84,East,88,0.0,1.0,47,0.00,,,0.00,Wunderground v.1.15,2013-07-07 14:06:00,
2013-07-07 08:08:00,70.6,49.4,29.84,East,87,0.0,1.0,47,0.00,,,0.00,Wunderground v.1.15,2013-07-07 14:08:00,
2013-07-07 08:14:00,70.8,49.6,29.84,East,87,0.0,0.0,47,0.00,,,0.00,Wunderground v.1.15,2013-07-07 14:14:00,
2013-07-07 08:16:00,70.8,50.7,29.85,East,87,0.0,2.0,49,0.00,,,0.00,Wunderground v.1.15,2013-07-07 14:16:00,
2013-07-07 08:20:00,70.8,49.0,29.85,East,87,0.0,0.0,46,0.00,,,0.00,Wunderground v.1.15,2013-07-07 14:20:00,
2013-07-07 08:24:00,71.1,50.4,29.85,East,87,0.0,0.0,48,0.00,,,0.00,Wunderground v.1.15,2013-07-07 14:24:00,
2013-07-07 08:26:00,71.1,49.3,29.85,East,88,0.0,0.0,46,0.00,,,0.00,Wunderground v.1.15,2013-07-07 14:26:00,
2013-07-07 08:30:00,71.3,48.3,29.85,East,87,0.0,0.0,44,0.00,,,0.00,Wunderground v.1.15,2013-07-07 14:30:00,
2013-07-07 08:32:00,71.3,49.4,29.86,East,87,0.0,1.0,46,0.00,,,0.00,Wunderground v.1.15,2013-07-07 14:32:00,
2013-07-07 08:34:00,71.5,49.0,29.86,East,87,0.0,1.0,45,0.00,,,0.00,Wunderground v.1.15,2013-07-07 14:34:00,
2013-07-07 08:36:00,71.6,50.9,29.86,East,88,1.0,1.0,48,0.00,,,0.00,Wunderground v.1.15,2013-07-07 14:36:00,
2013-07-07 08:38:00,71.6,49.7,29.86,SE,146,1.0,3.0,46,0.00,,,0.00,Wunderground v.1.15,2013-07-07 14:38:00,
2013-07-07 08:40:00,71.8,48.7,29.86,SE,146,2.0,2.0,44,0.00,,,0.00,Wunderground v.1.15,2013-07-07 14:40:00,
2013-07-07 08:46:00,72.3,48.5,29.86,SE,146,1.0,2.0,43,0.00,,,0.00,Wunderground v.1.15,2013-07-07 14:46:00,
2013-07-07 08:50:00,72.8,48.4,29.86,SE,146,0.0,0.0,42,0.00,,,0.00,Wunderground v.1.15,2013-07-07 14:50:00,
2013-07-07 08:52:00,73.0,48.5,29.86,SE,146,0.0,0.0,42,0.00,,,0.00,Wunderground v.1.15,2013-07-07 14:52:00,
2013-07-07 08:56:00,73.3,45.4,29.86,SE,146,1.0,1.0,37,0.00,,,0.00,Wunderground v.1.15,2013-07-07 14:56:00,
2013-07-07 08:58:00,73.5,45.6,29.86,SE,146,1.0,1.0,37,0.00,,,0.00,Wunderground v.1.15,2013-07-07 14:58:00,
2013-07-07 09:02:00,73.9,46.7,29.85,SE,146,1.0,1.0,38,0.00,,,0.00,Wunderground v.1.15,2013-07-07 15:02:00,
2013-07-07 09:04:00,74.4,47.1,29.85,SE,146,1.0,1.0,38,0.00,,,0.00,Wunderground v.1.15,2013-07-07 15:04:00,
2013-07-07 09:06:00,74.7,46.0,29.85,SE,146,1.0,2.0,36,0.00,,,0.00,Wunderground v.1.15,2013-07-07 15:06:00,
2013-07-07 09:08:00,74.9,45.4,29.85,SE,146,1.0,2.0,35,0.00,,,0.00,Wunderground v.1.15,2013-07-07 15:08:00,
2013-07-07 09:10:00,75.3,45.7,29.85,SE,146,1.0,1.0,35,0.00,,,0.00,Wunderground v.1.15,2013-07-07 15:10:00,
2013-07-07 09:12:00,75.6,46.0,29.85,SE,146,1.0,1.0,35,0.00,,,0.00,Wunderground v.1.15,2013-07-07 15:12:00,
2013-07-07 09:16:00,76.1,45.7,29.85,SE,146,0.0,3.0,34,0.00,,,0.00,Wunderground v.1.15,2013-07-07 15:16:00,
2013-07-07 09:18:00,76.1,44.9,29.85,SE,146,1.0,3.0,33,0.00,,,0.00,Wunderground v.1.15,2013-07-07 15:18:00,
2013-07-07 09:20:00,76.1,46.5,29.85,SE,146,1.0,1.0,35,0.00,,,0.00,Wunderground v.1.15,2013-07-07 15:20:00,
2013-07-07 09:24:00,76.7,44.6,29.85,SE,146,1.0,2.0,32,0.00,,,0.00,Wunderground v.1.15,2013-07-07 15:24:00,
2013-07-07 09:26:00,76.8,43.9,29.85,SE,146,1.0,2.0,31,0.00,,,0.00,Wunderground v.1.15,2013-07-07 15:26:00,
2013-07-07 09:30:00,77.2,45.9,29.85,SE,146,1.0,2.0,33,0.00,,,0.00,Wunderground v.1.15,2013-07-07 15:30:00,
2013-07-07 09:32:00,77.0,46.5,29.84,SE,146,1.0,2.0,34,0.00,,,0.00,Wunderground v.1.15,2013-07-07 15:32:00,
2013-07-07 09:34:00,76.8,45.5,29.84,SE,146,1.0,2.0,33,0.00,,,0.00,Wunderground v.1.15,2013-07-07 15:34:00,
2013-07-07 09:40:00,77.2,45.9,29.84,SE,146,1.0,2.0,33,0.00,,,0.00,Wunderground v.1.15,2013-07-07 15:40:00,
2013-07-07 09:42:00,77.4,44.4,29.84,SE,146,1.0,2.0,31,0.00,,,0.00,Wunderground v.1.15,2013-07-07 15:42:00,
2013-07-07 09:44:00,77.7,43.8,29.84,ENE,78,1.0,2.0,30,0.00,,,0.00,Wunderground v.1.15,2013-07-07 15:44:00,
2013-07-07 09:48:00,78.1,45.0,29.82,ENE,78,1.0,2.0,31,0.00,,,0.00,Wunderground v.1.15,2013-07-07 15:48:00,
2013-07-07 09:50:00,78.1,45.0,29.82,East,79,1.0,1.0,31,0.00,,,0.00,Wunderground v.1.15,2013-07-07 15:50:00,
2013-07-07 09:52:00,78.1,44.1,29.82,East,79,1.0,1.0,30,0.00,,,0.00,Wunderground v.1.15,2013-07-07 15:52:00,
2013-07-07 09:56:00,78.5,46.2,29.82,East,79,1.0,1.0,32,0.00,,,0.00,Wunderground v.1.15,2013-07-07 15:56:00,
2013-07-07 09:58:00,78.8,44.7,29.82,East,79,1.0,1.0,30,0.00,,,0.00,Wunderground v.1.15,2013-07-07 15:58:00,
2013-07-07 10:02:00,79.6,45.4,29.82,East,79,0.0,2.0,30,0.00,,,0.00,Wunderground v.1.15,2013-07-07 16:02:00,
2013-07-07 10:04:00,79.6,44.5,29.82,East,79,1.0,3.0,29,0.00,,,0.00,Wunderground v.1.15,2013-07-07 16:04:00,
2013-07-07 10:06:00,79.2,45.1,29.82,East,79,1.0,3.0,30,0.00,,,0.00,Wunderground v.1.15,2013-07-07 16:06:00,
2013-07-07 10:08:00,79.4,45.3,29.82,ENE,78,1.0,3.0,30,0.00,,,0.00,Wunderground v.1.15,2013-07-07 16:08:00,
2013-07-07 10:12:00,79.6,44.5,29.82,ENE,78,2.0,3.0,29,0.00,,,0.00,Wunderground v.1.15,2013-07-07 16:12:00,
2013-07-07 10:16:00,79.2,44.2,29.83,ENE,76,2.0,3.0,29,0.00,,,0.00,Wunderground v.1.15,2013-07-07 16:16:00,
2013-07-07 10:18:00,79.2,44.2,29.83,ENE,71,2.0,3.0,29,0.00,,,0.00,Wunderground v.1.15,2013-07-07 16:18:00,
2013-07-07 10:22:00,79.4,46.1,29.83,ENE,72,2.0,2.0,31,0.00,,,0.00,Wunderground v.1.15,2013-07-07 16:22:00,
2013-07-07 10:26:00,80.1,48.4,29.83,ENE,72,1.0,2.0,33,0.00,,,0.00,Wunderground v.1.15,2013-07-07 16:26:00,
2013-07-07 10:30:00,81.2,44.0,29.83,ENE,72,0.0,0.0,27,0.00,,,0.00,Wunderground v.1.15,2013-07-07 16:30:00,
2013-07-07 10:36:00,82.0,44.7,29.81,NE,39,0.0,1.0,27,0.00,,,0.00,Wunderground v.1.15,2013-07-07 16:36:00,
2013-07-07 10:38:00,82.2,46.8,29.81,NE,39,0.0,1.0,29,0.00,,,0.00,Wunderground v.1.15,2013-07-07 16:38:00,
2013-07-07 10:40:00,82.6,47.1,29.81,NE,38,0.0,1.0,29,0.00,,,0.00,Wunderground v.1.15,2013-07-07 16:40:00,
2013-07-07 10:42:00,82.8,45.4,29.81,NE,38,0.0,1.0,27,0.00,,,0.00,Wunderground v.1.15,2013-07-07 16:42:00,
2013-07-07 10:44:00,82.8,45.4,29.81,NE,38,0.0,2.0,27,0.00,,,0.00,Wunderground v.1.15,2013-07-07 16:44:00,
2013-07-07 10:46:00,82.8,45.4,29.80,NE,38,1.0,2.0,27,0.00,,,0.00,Wunderground v.1.15,2013-07-07 16:46:00,
2013-07-07 10:48:00,83.0,45.6,29.80,NE,38,1.0,2.0,27,0.00,,,0.00,Wunderground v.1.15,2013-07-07 16:48:00,
2013-07-07 10:50:00,83.0,45.6,29.80,NE,38,1.0,1.0,27,0.00,,,0.00,Wunderground v.1.15,2013-07-07 16:50:00,
2013-07-07 10:52:00,83.2,45.7,29.80,NE,38,1.0,1.0,27,0.00,,,0.00,Wunderground v.1.15,2013-07-07 16:52:00,
2013-07-07 10:54:00,83.6,45.1,29.80,NE,38,1.0,1.0,26,0.00,,,0.00,Wunderground v.1.15,2013-07-07 16:54:00,
2013-07-07 10:56:00,84.0,45.4,29.80,NE,38,0.0,1.0,26,0.00,,,0.00,Wunderground v.1.15,2013-07-07 16:56:00,
2013-07-07 11:00:00,84.5,41.5,29.80,North,11,0.0,2.0,22,0.00,,,0.00,Wunderground v.1.15,2013-07-07 17:00:00,
2013-07-07 11:02:00,84.1,43.4,29.80,North,11,1.0,2.0,24,0.00,,,0.00,Wunderground v.1.15,2013-07-07 17:02:00,
2013-07-07 11:06:00,83.6,43.0,29.80,North,11,1.0,3.0,24,0.00,,,0.00,Wunderground v.1.15,2013-07-07 17:06:00,
2013-07-07 11:10:00,83.0,43.5,29.80,NNE,22,2.0,3.0,25,0.00,,,0.00,Wunderground v.1.15,2013-07-07 17:10:00,
2013-07-07 11:12:00,82.6,42.1,29.80,NNE,22,2.0,3.0,24,0.00,,,0.00,Wunderground v.1.15,2013-07-07 17:12:00,
2013-07-07 11:14:00,82.8,42.3,29.80,NNE,22,2.0,3.0,24,0.00,,,0.00,Wunderground v.1.15,2013-07-07 17:14:00,
2013-07-07 11:16:00,83.0,43.5,29.80,NNW,336,1.0,4.0,25,0.00,,,0.00,Wunderground v.1.15,2013-07-07 17:16:00,
2013-07-07 11:18:00,83.2,42.6,29.80,NW,312,2.0,4.0,24,0.00,,,0.00,Wunderground v.1.15,2013-07-07 17:18:00,
2013-07-07 11:22:00,83.4,43.9,29.80,NW,317,1.0,2.0,25,0.00,,,0.00,Wunderground v.1.15,2013-07-07 17:22:00,
2013-07-07 11:24:00,83.6,44.1,29.80,NW,320,1.0,2.0,25,0.00,,,0.00,Wunderground v.1.15,2013-07-07 17:24:00,
2013-07-07 11:26:00,83.8,44.2,29.80,NW,320,2.0,3.0,25,0.00,,,0.00,Wunderground v.1.15,2013-07-07 17:26:00,
2013-07-07 11:28:00,83.8,43.2,29.80,NW,320,2.0,3.0,24,0.00,,,0.00,Wunderground v.1.15,2013-07-07 17:28:00,
2013-07-07 11:30:00,83.8,43.2,29.80,NW,320,2.0,2.0,24,0.00,,,0.00,Wunderground v.1.15,2013-07-07 17:30:00,
2013-07-07 11:32:00,84.0,42.2,29.80,NW,320,2.0,2.0,23,0.00,,,0.00,Wunderground v.1.15,2013-07-07 17:32:00,
2013-07-07 11:36:00,84.5,42.6,29.80,NW,320,1.0,5.0,23,0.00,,,0.00,Wunderground v.1.15,2013-07-07 17:36:00,
2013-07-07 11:38:00,84.1,43.4,29.80,NW,319,2.0,5.0,24,0.00,,,0.00,Wunderground v.1.15,2013-07-07 17:38:00,
2013-07-07 11:39:00,84.1,44.5,29.80,NW,320,1.0,1.0,25,0.00,,,0.00,Wunderground v.1.15,2013-07-07 17:39:00,
2013-07-07 11:42:00,84.3,45.7,29.80,NW,324,2.0,3.0,26,0.00,,,0.00,Wunderground v.1.15,2013-07-07 17:42:00,
2013-07-07 11:46:00,84.5,43.7,29.79,NNW,327,1.0,3.0,24,0.00,,,0.00,Wunderground v.1.15,2013-07-07 17:46:00,
2013-07-07 11:48:00,84.7,42.8,29.79,North,360,1.0,3.0,23,0.00,,,0.00,Wunderground v.1.15,2013-07-07 17:48:00,
2013-07-07 11:50:00,84.9,41.8,29.79,NNW,336,1.0,4.0,22,0.00,,,0.00,Wunderground v.1.15,2013-07-07 17:50:00,
2013-07-07 11:54:00,84.3,41.3,29.79,NW,304,2.0,4.0,22,0.00,,,0.00,Wunderground v.1.15,2013-07-07 17:54:00,
2013-07-07 11:56:00,84.0,42.2,29.79,NW,309,2.0,4.0,23,0.00,,,0.00,Wunderground v.1.15,2013-07-07 17:56:00,
2013-07-07 11:58:00,83.8,42.0,29.79,NW,309,3.0,4.0,23,0.00,,,0.00,Wunderground v.1.15,2013-07-07 17:58:00,
2013-07-07 12:00:00,84.0,41.1,29.79,NW,309,2.0,2.0,22,0.00,,,0.00,Wunderground v.1.15,2013-07-07 18:00:00,
2013-07-07 12:02:00,84.1,42.3,29.80,NW,309,2.0,2.0,23,0.00,,,0.00,Wunderground v.1.15,2013-07-07 18:02:00,
2013-07-07 12:06:00,84.3,43.6,29.80,NNW,332,2.0,4.0,24,0.00,,,0.00,Wunderground v.1.15,2013-07-07 18:06:00,
2013-07-07 12:08:00,84.3,41.3,29.80,NW,309,2.0,5.0,22,0.00,,,0.00,Wunderground v.1.15,2013-07-07 18:08:00,
2013-07-07 12:10:00,84.3,43.6,29.80,NW,309,2.0,2.0,24,0.00,,,0.00,Wunderground v.1.15,2013-07-07 18:10:00,
2013-07-07 12:14:00,84.5,42.6,29.80,NNE,15,2.0,4.0,23,0.00,,,0.00,Wunderground v.1.15,2013-07-07 18:14:00,
2013-07-07 12:16:00,84.7,41.6,29.81,North,350,2.0,4.0,22,0.00,,,0.00,Wunderground v.1.15,2013-07-07 18:16:00,
2013-07-07 12:18:00,84.7,41.6,29.81,NW,325,2.0,4.0,22,0.00,,,0.00,Wunderground v.1.15,2013-07-07 18:18:00,
2013-07-07 12:20:00,84.9,41.8,29.81,NW,311,2.0,2.0,22,0.00,,,0.00,Wunderground v.1.15,2013-07-07 18:20:00,
2013-07-07 12:22:00,84.9,41.8,29.81,NNE,32,2.0,6.0,22,0.00,,,0.00,Wunderground v.1.15,2013-07-07 18:22:00,
2013-07-07 12:24:00,84.7,40.4,29.81,NNE,32,2.0,6.0,21,0.00,,,0.00,Wunderground v.1.15,2013-07-07 18:24:00,
2013-07-07 12:26:00,84.9,41.8,29.81,NNE,31,2.0,6.0,22,0.00,,,0.00,Wunderground v.1.15,2013-07-07 18:26:00,
2013-07-07 12:30:00,85.3,42.1,29.81,NNW,348,1.0,1.0,22,0.00,,,0.00,Wunderground v.1.15,2013-07-07 18:30:00,
2013-07-07 12:32:00,85.7,42.5,29.79,NNW,348,1.0,1.0,22,0.00,,,0.00,Wunderground v.1.15,2013-07-07 18:32:00,
2013-07-07 12:34:00,85.9,43.8,29.79,NNE,19,1.0,4.0,23,0.00,,,0.00,Wunderground v.1.15,2013-07-07 18:34:00,
2013-07-07 12:36:00,85.7,41.3,29.79,NE,40,2.0,4.0,21,0.00,,,0.00,Wunderground v.1.15,2013-07-07 18:36:00,
2013-07-07 12:38:00,85.7,42.5,29.79,NE,46,2.0,4.0,22,0.00,,,0.00,Wunderground v.1.15,2013-07-07 18:38:00,
2013-07-07 12:40:00,85.7,41.3,29.79,NE,42,1.0,1.0,21,0.00,,,0.00,Wunderground v.1.15,2013-07-07 18:40:00,
2013-07-07 12:44:00,86.1,42.8,29.79,North,349,1.0,4.0,22,0.00,,,0.00,Wunderground v.1.15,2013-07-07 18:44:00,
2013-07-07 12:46:00,86.1,41.6,29.78,NNE,17,1.0,4.0,21,0.00,,,0.00,Wunderground v.1.15,2013-07-07 18:46:00,
2013-07-07 12:50:00,86.3,40.5,29.78,NE,46,1.0,1.0,20,0.00,,,0.00,Wunderground v.1.15,2013-07-07 18:50:00,
2013-07-07 12:54:00,86.1,44.0,29.78,NNE,22,2.0,6.0,23,0.00,,,0.00,Wunderground v.1.15,2013-07-07 18:54:00,
2013-07-07 12:58:00,86.1,44.0,29.78,NW,319,2.0,6.0,23,0.00,,,0.00,Wunderground v.1.15,2013-07-07 18:58:00,
2013-07-07 13:00:00,86.1,40.3,29.78,NW,305,2.0,2.0,20,0.00,,,0.00,Wunderground v.1.15,2013-07-07 19:00:00,
2013-07-07 13:02:00,86.1,41.6,29.78,NNW,340,2.0,4.0,21,0.00,,,0.00,Wunderground v.1.15,2013-07-07 19:02:00,
2013-07-07 13:04:00,86.1,41.6,29.78,NNW,336,2.0,4.0,21,0.00,,,0.00,Wunderground v.1.15,2013-07-07 19:04:00,
2013-07-07 13:08:00,86.3,43.0,29.78,NNW,345,2.0,4.0,22,0.00,,,0.00,Wunderground v.1.15,2013-07-07 19:08:00,
2013-07-07 13:10:00,86.3,39.2,29.78,WNW,299,2.0,4.0,19,0.00,,,0.00,Wunderground v.1.15,2013-07-07 19:10:00,
2013-07-07 13:14:00,86.1,44.0,29.78,NNW,348,2.0,6.0,23,0.00,,,0.00,Wunderground v.1.15,2013-07-07 19:14:00,
2013-07-07 13:16:00,85.9,38.8,29.77,NE,44,2.0,6.0,19,0.00,,,0.00,Wunderground v.1.15,2013-07-07 19:16:00,
2013-07-07 13:18:00,85.9,41.4,29.77,NNW,333,3.0,6.0,21,0.00,,,0.00,Wunderground v.1.15,2013-07-07 19:18:00,
2013-07-07 13:22:00,86.3,40.5,29.77,NNW,334,2.0,3.0,20,0.00,,,0.00,Wunderground v.1.15,2013-07-07 19:22:00,
2013-07-07 13:26:00,86.7,42.1,29.77,North,32767,2.0,3.0,21,0.00,,,0.00,Wunderground v.1.15,2013-07-07 19:26:00,
2013-07-07 13:28:00,87.0,39.7,29.77,NNW,346,1.0,3.0,19,0.00,,,0.00,Wunderground v.1.15,2013-07-07 19:28:00,
2013-07-07 13:32:00,86.7,40.8,29.76,NW,306,2.0,7.0,20,0.00,,,0.00,Wunderground v.1.15,2013-07-07 19:32:00,
2013-07-07 13:36:00,86.3,40.5,29.76,NW,324,3.0,7.0,20,0.00,,,0.00,Wunderground v.1.15,2013-07-07 19:36:00,
2013-07-07 13:38:00,86.3,41.8,29.76,WNW,294,3.0,7.0,21,0.00,,,0.00,Wunderground v.1.15,2013-07-07 19:38:00,
2013-07-07 13:42:00,86.7,38.1,29.76,WSW,237,2.0,3.0,18,0.00,,,0.00,Wunderground v.1.15,2013-07-07 19:42:00,
2013-07-07 13:44:00,87.0,39.7,29.76,North,5,2.0,3.0,19,0.00,,,0.00,Wunderground v.1.15,2013-07-07 19:44:00,
2013-07-07 13:46:00,87.4,38.7,29.75,North,5,1.0,3.0,18,0.00,,,0.00,Wunderground v.1.15,2013-07-07 19:46:00,
2013-07-07 13:52:00,87.8,39.0,29.75,NNW,331,1.0,1.0,18,0.00,,,0.00,Wunderground v.1.15,2013-07-07 19:52:00,
2013-07-07 13:54:00,87.8,40.4,29.75,NNW,331,1.0,1.0,19,0.00,,,0.00,Wunderground v.1.15,2013-07-07 19:54:00,
2013-07-07 13:58:00,87.8,37.6,29.75,NNE,32,1.0,2.0,17,0.00,,,0.00,Wunderground v.1.15,2013-07-07 19:58:00,
2013-07-07 14:01:00,88.0,40.6,29.75,NE,38,1.0,1.0,19,0.00,,,0.00,Wunderground v.1.15,2013-07-07 20:01:00,
2013-07-07 14:08:00,88.4,36.5,29.75,NNE,31,1.0,3.0,16,0.00,,,0.00,Wunderground v.1.15,2013-07-07 20:08:00,
2013-07-07 14:10:00,88.4,38.0,29.75,North,32767,1.0,1.0,17,0.00,,,0.00,Wunderground v.1.15,2013-07-07 20:10:00,
2013-07-07 14:14:00,88.4,38.0,29.75,NW,326,1.0,2.0,17,0.00,,,0.00,Wunderground v.1.15,2013-07-07 20:14:00,
2013-07-07 14:16:00,88.6,38.2,29.74,NW,326,1.0,2.0,17,0.00,,,0.00,Wunderground v.1.15,2013-07-07 20:16:00,
2013-07-07 14:20:00,88.8,41.2,29.74,NW,323,1.0,4.0,19,0.00,,,0.00,Wunderground v.1.15,2013-07-07 20:20:00,
2013-07-07 14:22:00,88.8,41.2,29.74,NNE,13,1.0,4.0,19,0.00,,,0.00,Wunderground v.1.15,2013-07-07 20:22:00,
2013-07-07 14:24:00,88.8,38.4,29.74,NNW,343,1.0,4.0,17,0.00,,,0.00,Wunderground v.1.15,2013-07-07 20:24:00,
2013-07-07 14:30:00,88.4,36.5,29.74,North,5,2.0,2.0,16,0.00,,,0.00,Wunderground v.1.15,2013-07-07 20:30:00,
2013-07-07 14:32:00,88.4,38.0,29.73,NNW,340,2.0,9.0,17,0.00,,,0.00,Wunderground v.1.15,2013-07-07 20:32:00,
2013-07-07 14:36:00,88.2,36.3,29.73,NNE,17,2.0,9.0,16,0.00,,,0.00,Wunderground v.1.15,2013-07-07 20:36:00,
2013-07-07 14:38:00,88.4,36.5,29.73,North,355,2.0,9.0,16,0.00,,,0.00,Wunderground v.1.15,2013-07-07 20:38:00,
2013-07-07 14:40:00,88.6,38.2,29.73,North,351,2.0,2.0,17,0.00,,,0.00,Wunderground v.1.15,2013-07-07 20:40:00,
2013-07-07 14:42:00,88.8,36.8,29.73,NNE,17,2.0,2.0,16,0.00,,,0.00,Wunderground v.1.15,2013-07-07 20:42:00,
2013-07-07 14:43:00,89.0,38.5,29.73,NW,318,2.0,2.0,17,0.00,,,0.00,Wunderground v.1.15,2013-07-07 20:43:00,
2013-07-07 14:46:00,89.0,37.0,29.73,NNE,16,2.0,6.0,16,0.00,,,0.00,Wunderground v.1.15,2013-07-07 20:46:00,
2013-07-07 14:50:00,89.3,37.2,29.73,NNE,29,2.0,2.0,16,0.00,,,0.00,Wunderground v.1.15,2013-07-07 20:50:00,
2013-07-07 14:52:00,89.3,37.2,29.73,NW,307,2.0,5.0,16,0.00,,,0.00,Wunderground v.1.15,2013-07-07 20:52:00,
2013-07-07 14:54:00,89.5,37.4,29.73,NW,315,2.0,5.0,16,0.00,,,0.00,Wunderground v.1.15,2013-07-07 20:54:00,
2013-07-07 14:56:00,89.5,35.7,29.73,NW,315,1.0,5.0,15,0.00,,,0.00,Wunderground v.1.15,2013-07-07 20:56:00,
2013-07-07 15:00:00,89.7,37.5,29.73,NNW,348,2.0,2.0,16,0.00,,,0.00,Wunderground v.1.15,2013-07-07 21:00:00,
2013-07-07 15:04:00,89.5,37.4,29.70,NNE,28,2.0,4.0,16,0.00,,,0.00,Wunderground v.1.15,2013-07-07 21:04:00,
2013-07-07 15:06:00,89.5,38.9,29.70,NNW,327,2.0,4.0,17,0.00,,,0.00,Wunderground v.1.15,2013-07-07 21:06:00,
2013-07-07 15:12:00,89.9,40.7,29.70,NW,307,1.0,4.0,18,0.00,,,0.00,Wunderground v.1.15,2013-07-07 21:12:00,
2013-07-07 15:14:00,89.9,39.2,29.70,NNW,331,2.0,4.0,17,0.00,,,0.00,Wunderground v.1.15,2013-07-07 21:14:00,
2013-07-07 15:16:00,89.7,37.5,29.72,NNW,340,2.0,4.0,16,0.00,,,0.00,Wunderground v.1.15,2013-07-07 21:16:00,
2013-07-07 15:22:00,89.7,40.6,29.72,North,5,2.0,5.0,18,0.00,,,0.00,Wunderground v.1.15,2013-07-07 21:22:00,
2013-07-07 15:24:00,89.7,37.5,29.72,NW,324,2.0,5.0,16,0.00,,,0.00,Wunderground v.1.15,2013-07-07 21:24:00,
2013-07-07 15:26:00,89.7,37.5,29.72,NNW,327,2.0,5.0,16,0.00,,,0.00,Wunderground v.1.15,2013-07-07 21:26:00,
2013-07-07 15:30:00,89.9,39.2,29.72,NNW,340,2.0,2.0,17,0.00,,,0.00,Wunderground v.1.15,2013-07-07 21:30:00,
2013-07-07 15:32:00,89.9,39.2,29.70,North,355,2.0,2.0,17,0.00,,,0.00,Wunderground v.1.15,2013-07-07 21:32:00,
2013-07-07 15:34:00,90.1,39.4,29.70,NNW,344,1.0,2.0,17,0.00,,,0.00,Wunderground v.1.15,2013-07-07 21:34:00,
2013-07-07 15:36:00,90.3,39.6,29.70,WNW,301,1.0,2.0,17,0.00,,,0.00,Wunderground v.1.15,2013-07-07 21:36:00,
2013-07-07 15:40:00,90.3,39.6,29.70,NW,311,2.0,5.0,17,0.00,,,0.00,Wunderground v.1.15,2013-07-07 21:40:00,
2013-07-07 15:42:00,90.5,38.2,29.70,NW,311,2.0,5.0,16,0.00,,,0.00,Wunderground v.1.15,2013-07-07 21:42:00,
2013-07-07 15:44:00,90.5,38.2,29.70,NNW,331,2.0,7.0,16,0.00,,,0.00,Wunderground v.1.15,2013-07-07 21:44:00,
2013-07-07 15:46:00,90.3,39.6,29.70,NNE,15,2.0,7.0,17,0.00,,,0.00,Wunderground v.1.15,2013-07-07 21:46:00,
2013-07-07 15:50:00,89.9,37.7,29.70,NNE,16,3.0,7.0,16,0.00,,,0.00,Wunderground v.1.15,2013-07-07 21:50:00,
2013-07-07 15:52:00,89.7,35.9,29.70,NNE,19,3.0,3.0,15,0.00,,,0.00,Wunderground v.1.15,2013-07-07 21:52:00,
2013-07-07 15:56:00,89.9,39.2,29.70,NNE,19,2.0,3.0,17,0.00,,,0.00,Wunderground v.1.15,2013-07-07 21:56:00,
2013-07-07 16:00:00,90.5,39.7,29.70,West,279,1.0,5.0,17,0.00,,,0.00,Wunderground v.1.15,2013-07-07 22:00:00,
2013-07-07 16:04:00,90.3,38.0,29.68,NW,304,2.0,5.0,16,0.00,,,0.00,Wunderground v.1.15,2013-07-07 22:04:00,
2013-07-07 16:06:00,90.3,38.0,29.68,NNW,338,2.0,5.0,16,0.00,,,0.00,Wunderground v.1.15,2013-07-07 22:06:00,
2013-07-07 16:08:00,90.3,39.6,29.68,NNW,328,2.0,5.0,17,0.00,,,0.00,Wunderground v.1.15,2013-07-07 22:08:00,
2013-07-07 16:10:00,90.3,41.0,29.68,NNW,328,2.0,2.0,18,0.00,,,0.00,Wunderground v.1.15,2013-07-07 22:10:00,
2013-07-07 16:12:00,90.7,39.9,29.68,North,5,1.0,7.0,17,0.00,,,0.00,Wunderground v.1.15,2013-07-07 22:12:00,
2013-07-07 16:18:00,90.1,36.2,29.69,NNE,30,2.0,7.0,15,0.00,,,0.00,Wunderground v.1.15,2013-07-07 22:18:00,
2013-07-07 16:20:00,89.9,36.1,29.69,NNE,33,2.0,2.0,15,0.00,,,0.00,Wunderground v.1.15,2013-07-07 22:20:00,
2013-07-07 16:24:00,89.7,37.5,29.69,NW,325,1.0,2.0,16,0.00,,,0.00,Wunderground v.1.15,2013-07-07 22:24:00,
2013-07-07 16:26:00,89.9,39.2,29.69,NW,325,1.0,2.0,17,0.00,,,0.00,Wunderground v.1.15,2013-07-07 22:26:00,
2013-07-07 16:28:00,90.1,37.9,29.69,NNW,347,1.0,2.0,16,0.00,,,0.00,Wunderground v.1.15,2013-07-07 22:28:00,
2013-07-07 16:30:00,90.1,37.9,29.69,NNW,336,2.0,2.0,16,0.00,,,0.00,Wunderground v.1.15,2013-07-07 22:30:00,
2013-07-07 16:36:00,89.9,39.2,29.69,WNW,290,2.0,5.0,17,0.00,,,0.00,Wunderground v.1.15,2013-07-07 22:36:00,
2013-07-07 16:38:00,90.1,39.4,29.69,NW,307,2.0,5.0,17,0.00,,,0.00,Wunderground v.1.15,2013-07-07 22:38:00,
2013-07-07 16:40:00,90.3,38.0,29.69,NW,307,2.0,2.0,16,0.00,,,0.00,Wunderground v.1.15,2013-07-07 22:40:00,
2013-07-07 16:42:00,90.5,39.7,29.69,NW,307,1.0,2.0,17,0.00,,,0.00,Wunderground v.1.15,2013-07-07 22:42:00,
2013-07-07 16:46:00,91.2,38.7,29.68,NW,309,1.0,2.0,16,0.00,,,0.00,Wunderground v.1.15,2013-07-07 22:46:00,
2013-07-07 16:52:00,91.2,38.7,29.68,NNE,16,2.0,3.0,16,0.00,,,0.00,Wunderground v.1.15,2013-07-07 22:52:00,
2013-07-07 16:54:00,91.0,40.1,29.68,NE,42,2.0,3.0,17,0.00,,,0.00,Wunderground v.1.15,2013-07-07 22:54:00,
2013-07-07 16:56:00,91.0,38.6,29.68,NNE,28,2.0,3.0,16,0.00,,,0.00,Wunderground v.1.15,2013-07-07 22:56:00,
2013-07-07 16:58:00,91.0,38.6,29.68,NNE,28,1.0,3.0,16,0.00,,,0.00,Wunderground v.1.15,2013-07-07 22:58:00,
2013-07-07 17:00:00,91.0,38.6,29.68,NNE,24,1.0,6.0,16,0.00,,,0.00,Wunderground v.1.15,2013-07-07 23:00:00,
2013-07-07 17:06:00,90.3,38.0,29.68,North,5,1.0,6.0,16,0.00,,,0.00,Wunderground v.1.15,2013-07-07 23:06:00,
2013-07-07 17:08:00,90.3,38.0,29.68,NNE,14,2.0,6.0,16,0.00,,,0.00,Wunderground v.1.15,2013-07-07 23:08:00,
2013-07-07 17:10:00,90.3,38.0,29.68,NNE,23,2.0,2.0,16,0.00,,,0.00,Wunderground v.1.15,2013-07-07 23:10:00,
2013-07-07 17:14:00,90.3,38.0,29.68,ENE,76,1.0,2.0,16,0.00,,,0.00,Wunderground v.1.15,2013-07-07 23:14:00,
2013-07-07 17:17:00,90.7,38.3,29.68,NNE,18,1.0,3.0,16,0.00,,,0.00,Wunderground v.1.15,2013-07-07 23:17:00,
2013-07-07 17:20:00,91.0,38.6,29.68,NNE,13,1.0,3.0,16,0.00,,,0.00,Wunderground v.1.15,2013-07-07 23:20:00,
2013-07-07 17:24:00,91.0,40.1,29.68,NNE,15,1.0,3.0,17,0.00,,,0.00,Wunderground v.1.15,2013-07-07 23:24:00,
2013-07-07 17:26:00,91.2,37.1,29.68,North,32767,1.0,3.0,15,0.00,,,0.00,Wunderground v.1.15,2013-07-07 23:26:00,
2013-07-07 17:32:00,91.2,38.7,29.68,NW,326,0.0,3.0,16,0.00,,,0.00,Wunderground v.1.15,2013-07-07 23:32:00,
2013-07-07 17:34:00,91.2,38.7,29.68,WNW,299,1.0,3.0,16,0.00,,,0.00,Wunderground v.1.15,2013-07-07 23:34:00,
2013-07-07 17:36:00,91.2,38.7,29.68,WNW,299,1.0,3.0,16,0.00,,,0.00,Wunderground v.1.15,2013-07-07 23:36:00,
2013-07-07 17:37:00,91.2,38.7,29.68,WNW,299,1.0,3.0,16,0.00,,,0.00,Wunderground v.1.15,2013-07-07 23:37:00,
2013-07-07 17:40:00,91.4,38.9,29.68,WNW,299,1.0,1.0,16,0.00,,,0.00,Wunderground v.1.15,2013-07-07 23:40:00,
2013-07-07 17:42:00,91.4,38.9,29.68,NNE,18,1.0,1.0,16,0.00,,,0.00,Wunderground v.1.15,2013-07-07 23:42:00,
2013-07-07 17:44:00,91.4,38.9,29.68,NNE,28,1.0,3.0,16,0.00,,,0.00,Wunderground v.1.15,2013-07-07 23:44:00,
2013-07-07 17:46:00,91.4,37.2,29.68,NNE,29,1.0,4.0,15,0.00,,,0.00,Wunderground v.1.15,2013-07-07 23:46:00,
2013-07-07 17:48:00,91.2,38.7,29.68,NNW,329,1.0,4.0,16,0.00,,,0.00,Wunderground v.1.15,2013-07-07 23:48:00,
2013-07-07 17:49:00,91.0,38.6,29.68,NW,308,2.0,4.0,16,0.00,,,0.00,Wunderground v.1.15,2013-07-07 23:49:00,
2013-07-07 17:52:00,91.0,38.6,29.68,NW,321,2.0,4.0,16,0.00,,,0.00,Wunderground v.1.15,2013-07-07 23:52:00,
2013-07-07 17:54:00,90.7,38.3,29.68,NW,321,2.0,4.0,16,0.00,,,0.00,Wunderground v.1.15,2013-07-07 23:54:00,
2013-07-07 17:56:00,90.7,41.4,29.68,NW,313,2.0,4.0,18,0.00,,,0.00,Wunderground v.1.15,2013-07-07 23:56:00,
2013-07-07 17:58:00,90.5,39.7,29.68,NW,313,1.0,4.0,17,0.00,,,0.00,Wunderground v.1.15,2013-07-07 23:58:00,
2013-07-07 18:00:00,90.5,38.2,29.68,NW,313,1.0,1.0,16,0.00,,,0.00,Wunderground v.1.15,2013-07-08 00:00:00,
2013-07-07 18:02:00,90.3,39.6,29.67,NNE,22,1.0,1.0,17,0.00,,,0.00,Wunderground v.1.15,2013-07-08 00:02:00,
2013-07-07 18:04:00,90.3,38.0,29.67,NNW,331,1.0,4.0,16,0.00,,,0.00,Wunderground v.1.15,2013-07-08 00:04:00,
2013-07-07 18:08:00,90.1,39.4,29.67,NNW,337,2.0,7.0,17,0.00,,,0.00,Wunderground v.1.15,2013-07-08 00:08:00,
2013-07-07 18:09:00,89.9,39.2,29.67,WNW,297,2.0,2.0,17,0.00,,,0.00,Wunderground v.1.15,2013-07-08 00:09:00,
2013-07-07 18:14:00,89.7,39.1,29.67,NW,324,2.0,2.0,17,0.00,,,0.00,Wunderground v.1.15,2013-07-08 00:14:00,
2013-07-07 18:16:00,89.7,39.1,29.67,North,11,2.0,2.0,17,0.00,,,0.00,Wunderground v.1.15,2013-07-08 00:16:00,
2013-07-07 18:20:00,89.7,40.6,29.67,NNE,26,1.0,2.0,18,0.00,,,0.00,Wunderground v.1.15,2013-07-08 00:20:00,
2013-07-07 18:26:00,89.5,40.4,29.67,NE,51,1.0,3.0,18,0.00,,,0.00,Wunderground v.1.15,2013-07-08 00:26:00,
2013-07-07 18:28:00,89.5,40.4,29.67,North,5,1.0,3.0,18,0.00,,,0.00,Wunderground v.1.15,2013-07-08 00:28:00,
2013-07-07 18:30:00,89.5,40.4,29.67,North,355,1.0,5.0,18,0.00,,,0.00,Wunderground v.1.15,2013-07-08 00:30:00,
2013-07-07 18:32:00,89.5,41.8,29.67,North,355,1.0,5.0,19,0.00,,,0.00,Wunderground v.1.15,2013-07-08 00:32:00,
2013-07-07 18:36:00,89.3,38.8,29.67,NNW,344,1.0,5.0,17,0.00,,,0.00,Wunderground v.1.15,2013-07-08 00:36:00,
2013-07-07 18:38:00,89.3,40.2,29.67,NNW,345,1.0,5.0,18,0.00,,,0.00,Wunderground v.1.15,2013-07-08 00:38:00,
2013-07-07 18:41:00,89.3,40.2,29.67,NNW,344,1.0,1.0,18,0.00,,,0.00,Wunderground v.1.15,2013-07-08 00:41:00,
2013-07-07 18:44:00,89.3,38.8,29.67,WNW,298,1.0,1.0,17,0.00,,,0.00,Wunderground v.1.15,2013-07-08 00:44:00,
2013-07-07 18:48:00,89.0,41.4,29.68,WNW,300,1.0,2.0,19,0.00,,,0.00,Wunderground v.1.15,2013-07-08 00:48:00,
2013-07-07 18:53:00,88.8,39.8,29.68,WNW,300,1.0,1.0,18,0.00,,,0.00,Wunderground v.1.15,2013-07-08 00:53:00,
2013-07-07 18:56:00,88.8,41.2,29.68,WNW,300,1.0,1.0,19,0.00,,,0.00,Wunderground v.1.15,2013-07-08 00:56:00,
2013-07-07 19:00:00,88.6,42.4,29.68,WNW,300,0.0,0.0,20,0.00,,,0.00,Wunderground v.1.15,2013-07-08 01:00:00,
2013-07-07 19:02:00,88.6,41.1,29.68,WNW,299,0.0,0.0,19,0.00,,,0.00,Wunderground v.1.15,2013-07-08 01:02:00,
2013-07-07 19:06:00,88.8,39.8,29.68,WNW,300,0.0,0.0,18,0.00,,,0.00,Wunderground v.1.15,2013-07-08 01:06:00,
2013-07-07 19:08:00,88.8,41.2,29.68,WNW,299,0.0,0.0,19,0.00,,,0.00,Wunderground v.1.15,2013-07-08 01:08:00,
2013-07-07 19:10:00,89.0,41.4,29.68,WNW,299,0.0,0.0,19,0.00,,,0.00,Wunderground v.1.15,2013-07-08 01:10:00,
2013-07-07 19:12:00,89.0,40.0,29.68,WNW,299,0.0,0.0,18,0.00,,,0.00,Wunderground v.1.15,2013-07-08 01:12:00,
2013-07-07 19:14:00,89.0,40.0,29.68,WNW,300,0.0,0.0,18,0.00,,,0.00,Wunderground v.1.15,2013-07-08 01:14:00,
2013-07-07 19:16:00,89.0,38.5,29.65,WNW,299,0.0,0.0,17,0.00,,,0.00,Wunderground v.1.15,2013-07-08 01:16:00,
2013-07-07 19:18:00,88.8,39.8,29.65,WNW,299,1.0,1.0,18,0.00,,,0.00,Wunderground v.1.15,2013-07-08 01:18:00,
2013-07-07 19:22:00,88.8,39.8,29.65,WNW,300,0.0,1.0,18,0.00,,,0.00,Wunderground v.1.15,2013-07-08 01:22:00,
2013-07-07 19:28:00,88.6,39.7,29.65,WNW,300,0.0,1.0,18,0.00,,,0.00,Wunderground v.1.15,2013-07-08 01:28:00,
2013-07-07 19:30:00,88.4,40.9,29.65,WNW,300,1.0,1.0,19,0.00,,,0.00,Wunderground v.1.15,2013-07-08 01:30:00,
2013-07-07 19:32:00,88.2,42.1,29.65,WNW,300,1.0,1.0,20,0.00,,,0.00,Wunderground v.1.15,2013-07-08 01:32:00,
2013-07-07 19:38:00,87.4,41.4,29.65,WNW,300,1.0,2.0,20,0.00,,,0.00,Wunderground v.1.15,2013-07-08 01:38:00,
2013-07-07 19:40:00,87.2,41.2,29.65,WNW,300,0.0,1.0,20,0.00,,,0.00,Wunderground v.1.15,2013-07-08 01:40:00,
2013-07-07 19:44:00,87.0,39.7,29.65,WNW,300,1.0,3.0,19,0.00,,,0.00,Wunderground v.1.15,2013-07-08 01:44:00,
2013-07-07 19:45:00,87.0,41.1,29.66,WNW,300,1.0,3.0,20,0.00,,,0.00,Wunderground v.1.15,2013-07-08 01:45:00,
2013-07-07 19:48:00,86.7,39.5,29.66,WNW,299,1.0,3.0,19,0.00,,,0.00,Wunderground v.1.15,2013-07-08 01:48:00,
2013-07-07 19:50:00,86.7,40.8,29.66,WNW,300,1.0,1.0,20,0.00,,,0.00,Wunderground v.1.15,2013-07-08 01:50:00,
2013-07-07 19:54:00,86.5,40.7,29.66,WNW,300,1.0,1.0,20,0.00,,,0.00,Wunderground v.1.15,2013-07-08 01:54:00,
2013-07-07 19:56:00,86.3,40.5,29.66,WNW,300,0.0,1.0,20,0.00,,,0.00,Wunderground v.1.15,2013-07-08 01:56:00,
2013-07-07 20:00:00,85.9,40.2,29.66,WNW,300,0.0,4.0,20,0.00,,,0.00,Wunderground v.1.15,2013-07-08 02:00:00,
2013-07-07 20:04:00,85.5,41.1,29.66,WNW,292,1.0,4.0,21,0.00,,,0.00,Wunderground v.1.15,2013-07-08 02:04:00,
2013-07-07 20:08:00,85.1,40.8,29.66,WNW,302,1.0,4.0,21,0.00,,,0.00,Wunderground v.1.15,2013-07-08 02:08:00,
2013-07-07 20:10:00,84.9,41.8,29.66,WNW,296,2.0,5.0,22,0.00,,,0.00,Wunderground v.1.15,2013-07-08 02:10:00,
2013-07-07 20:12:00,84.9,41.8,29.66,WNW,297,2.0,5.0,22,0.00,,,0.00,Wunderground v.1.15,2013-07-08 02:12:00,
2013-07-07 20:15:00,84.5,41.5,29.66,NNW,328,2.0,5.0,22,0.00,,,0.00,Wunderground v.1.15,2013-07-08 02:15:00,
2013-07-07 20:18:00,84.5,41.5,29.66,NW,316,1.0,6.0,22,0.00,,,0.00,Wunderground v.1.15,2013-07-08 02:18:00,
2013-07-07 20:20:00,84.3,43.6,29.66,NW,315,1.0,1.0,24,0.00,,,0.00,Wunderground v.1.15,2013-07-08 02:20:00,
2013-07-07 20:22:00,84.1,42.3,29.66,NW,315,1.0,1.0,23,0.00,,,0.00,Wunderground v.1.15,2013-07-08 02:22:00,
2013-07-07 20:24:00,84.0,43.3,29.66,NW,313,1.0,1.0,24,0.00,,,0.00,Wunderground v.1.15,2013-07-08 02:24:00,
2013-07-07 20:28:00,83.8,43.2,29.66,NNW,327,1.0,3.0,24,0.00,,,0.00,Wunderground v.1.15,2013-07-08 02:28:00,
2013-07-07 20:30:00,83.6,41.9,29.66,WNW,288,1.0,1.0,23,0.00,,,0.00,Wunderground v.1.15,2013-07-08 02:30:00,
2013-07-07 20:34:00,83.4,42.8,29.67,NNW,347,1.0,2.0,24,0.00,,,0.00,Wunderground v.1.15,2013-07-08 02:34:00,
2013-07-07 20:36:00,83.4,42.8,29.67,NW,310,1.0,2.0,24,0.00,,,0.00,Wunderground v.1.15,2013-07-08 02:36:00,
2013-07-07 20:37:00,83.4,42.8,29.67,NW,310,1.0,2.0,24,0.00,,,0.00,Wunderground v.1.15,2013-07-08 02:37:00,
2013-07-07 20:40:00,83.4,41.7,29.67,WSW,255,1.0,1.0,23,0.00,,,0.00,Wunderground v.1.15,2013-07-08 02:40:00,
2013-07-07 20:44:00,83.2,42.6,29.67,WNW,300,1.0,1.0,24,0.00,,,0.00,Wunderground v.1.15,2013-07-08 02:44:00,
2013-07-07 20:46:00,83.2,42.6,29.70,NNW,336,2.0,2.0,24,0.00,,,0.00,Wunderground v.1.15,2013-07-08 02:46:00,
2013-07-07 20:48:00,83.2,43.7,29.70,North,350,2.0,2.0,25,0.00,,,0.00,Wunderground v.1.15,2013-07-08 02:48:00,
2013-07-07 20:49:00,83.0,43.5,29.70,North,349,2.0,2.0,25,0.00,,,0.00,Wunderground v.1.15,2013-07-08 02:49:00,
2013-07-07 20:52:00,83.0,43.5,29.70,North,349,2.0,2.0,25,0.00,,,0.00,Wunderground v.1.15,2013-07-08 02:52:00,
2013-07-07 20:56:00,82.8,43.4,29.70,North,349,1.0,2.0,25,0.00,,,0.00,Wunderground v.1.15,2013-07-08 02:56:00,
2013-07-07 21:00:00,82.4,44.1,29.70,NNW,331,0.0,0.0,26,0.00,,,0.00,Wunderground v.1.15,2013-07-08 03:00:00,
2013-07-07 21:02:00,82.2,42.9,29.71,NNW,332,1.0,5.0,25,0.00,,,0.00,Wunderground v.1.15,2013-07-08 03:02:00,
2013-07-07 21:04:00,81.8,43.6,29.71,WNW,300,1.0,5.0,26,0.00,,,0.00,Wunderground v.1.15,2013-07-08 03:04:00,
2013-07-07 21:06:00,81.4,43.2,29.71,WNW,302,1.0,5.0,26,0.00,,,0.00,Wunderground v.1.15,2013-07-08 03:06:00,
2013-07-07 21:09:00,81.1,43.9,29.71,NW,306,2.0,2.0,27,0.00,,,0.00,Wunderground v.1.15,2013-07-08 03:09:00,
2013-07-07 21:14:00,80.5,44.4,29.71,NW,313,1.0,2.0,28,0.00,,,0.00,Wunderground v.1.15,2013-07-08 03:14:00,
2013-07-07 21:16:00,80.3,43.3,29.70,NW,316,2.0,2.0,27,0.00,,,0.00,Wunderground v.1.15,2013-07-08 03:16:00,
2013-07-07 21:18:00,80.3,42.3,29.70,NW,315,1.0,2.0,26,0.00,,,0.00,Wunderground v.1.15,2013-07-08 03:18:00,
2013-07-07 21:20:00,80.3,43.3,29.70,NW,316,1.0,1.0,27,0.00,,,0.00,Wunderground v.1.15,2013-07-08 03:20:00,
2013-07-07 21:24:00,80.3,42.3,29.70,NNW,347,2.0,12.0,26,0.00,,,0.00,Wunderground v.1.15,2013-07-08 03:24:00,
2013-07-07 21:28:00,80.5,41.4,29.70,NNW,333,4.0,12.0,25,0.00,,,0.00,Wunderground v.1.15,2013-07-08 03:28:00,
2013-07-07 21:30:00,80.7,41.6,29.70,NW,323,4.0,4.0,25,0.00,,,0.00,Wunderground v.1.15,2013-07-08 03:30:00,
2013-07-07 21:32:00,80.7,41.6,29.71,North,351,5.0,6.0,25,0.00,,,0.00,Wunderground v.1.15,2013-07-08 03:32:00,
2013-07-07 21:34:00,80.9,40.7,29.71,NW,323,5.0,6.0,24,0.00,,,0.00,Wunderground v.1.15,2013-07-08 03:34:00,
2013-07-07 21:36:00,80.9,41.8,29.71,NW,319,5.0,13.0,25,0.00,,,0.00,Wunderground v.1.15,2013-07-08 03:36:00,
2013-07-07 21:38:00,80.7,41.6,29.71,WNW,291,5.0,13.0,25,0.00,,,0.00,Wunderground v.1.15,2013-07-08 03:38:00,
2013-07-07 21:40:00,80.5,42.4,29.71,North,5,5.0,6.0,26,0.00,,,0.00,Wunderground v.1.15,2013-07-08 03:40:00,
2013-07-07 21:42:00,80.3,42.3,29.71,NNW,341,5.0,6.0,26,0.00,,,0.00,Wunderground v.1.15,2013-07-08 03:42:00,
2013-07-07 21:44:00,80.1,42.1,29.71,NW,323,4.0,6.0,26,0.00,,,0.00,Wunderground v.1.15,2013-07-08 03:44:00,
2013-07-07 21:46:00,79.8,43.8,29.73,NNW,344,4.0,9.0,28,0.00,,,0.00,Wunderground v.1.15,2013-07-08 03:46:00,
2013-07-07 21:48:00,79.4,42.5,29.73,North,355,4.0,9.0,27,0.00,,,0.00,Wunderground v.1.15,2013-07-08 03:48:00,
2013-07-07 21:50:00,79.0,43.1,29.73,North,355,4.0,4.0,28,0.00,,,0.00,Wunderground v.1.15,2013-07-08 03:50:00,
2013-07-07 21:54:00,77.9,44.8,29.73,NNW,348,3.0,4.0,31,0.00,,,0.00,Wunderground v.1.15,2013-07-08 03:54:00,
2013-07-07 21:56:00,77.6,44.6,29.73,NNE,27,4.0,6.0,31,0.00,,,0.01,Wunderground v.1.15,2013-07-08 03:56:00,
2013-07-07 21:58:00,77.2,43.4,29.73,NNW,329,5.0,7.0,30,0.00,,,0.01,Wunderground v.1.15,2013-07-08 03:58:00,
2013-07-07 22:02:00,77.2,44.2,29.78,NW,311,6.0,9.0,31,0.00,,,0.01,Wunderground v.1.15,2013-07-08 04:02:00,
2013-07-07 22:04:00,77.0,43.2,29.78,North,351,7.0,11.0,30,0.00,,,0.01,Wunderground v.1.15,2013-07-08 04:04:00,
2013-07-07 22:08:00,76.8,44.7,29.78,NW,311,6.0,11.0,32,0.00,,,0.01,Wunderground v.1.15,2013-07-08 04:08:00,
2013-07-07 22:10:00,76.7,44.6,29.78,NW,323,6.0,6.0,32,0.00,,,0.01,Wunderground v.1.15,2013-07-08 04:10:00,
2013-07-07 22:14:00,76.1,44.9,29.78,NNE,24,5.0,6.0,33,0.00,,,0.01,Wunderground v.1.15,2013-07-08 04:14:00,
2013-07-07 22:16:00,76.0,46.4,29.78,NNE,22,4.0,6.0,35,0.00,,,0.01,Wunderground v.1.15,2013-07-08 04:16:00,
2013-07-07 22:18:00,75.6,46.0,29.78,NW,317,4.0,6.0,35,0.00,,,0.01,Wunderground v.1.15,2013-07-08 04:18:00,
2013-07-07 22:22:00,75.1,46.3,29.78,NW,326,5.0,15.0,36,0.00,,,0.01,Wunderground v.1.15,2013-07-08 04:22:00,
2013-07-07 22:24:00,75.1,44.8,29.78,North,11,5.0,15.0,34,0.00,,,0.01,Wunderground v.1.15,2013-07-08 04:24:00,
2013-07-07 22:25:00,75.1,44.8,29.78,NNW,337,7.0,15.0,34,0.00,,,0.01,Wunderground v.1.15,2013-07-08 04:25:00,
2013-07-07 22:30:00,75.3,45.0,29.78,NW,321,9.0,10.0,34,0.00,,,0.01,Wunderground v.1.15,2013-07-08 04:30:00,
2013-07-07 22:32:00,75.3,45.7,29.81,North,350,8.0,10.0,35,0.00,,,0.01,Wunderground v.1.15,2013-07-08 04:32:00,
2013-07-07 22:36:00,75.3,45.0,29.81,WNW,302,8.0,10.0,34,0.00,,,0.01,Wunderground v.1.15,2013-07-08 04:36:00,
2013-07-07 22:38:00,75.3,45.0,29.81,NNW,327,7.0,10.0,34,0.00,,,0.01,Wunderground v.1.15,2013-07-08 04:38:00,
2013-07-07 22:44:00,75.4,44.3,29.81,NW,314,6.0,9.0,33,0.00,,,0.01,Wunderground v.1.15,2013-07-08 04:44:00,
2013-07-07 22:46:00,75.4,45.1,29.83,WNW,302,5.0,9.0,34,0.00,,,0.01,Wunderground v.1.15,2013-07-08 04:46:00,
2013-07-07 22:50:00,75.3,45.0,29.83,North,10,5.0,6.0,34,0.00,,,0.01,Wunderground v.1.15,2013-07-08 04:50:00,
2013-07-07 22:52:00,75.3,45.0,29.83,North,5,5.0,6.0,34,0.00,,,0.01,Wunderground v.1.15,2013-07-08 04:52:00,
2013-07-07 22:56:00,75.1,45.6,29.83,NNW,331,4.0,6.0,35,0.00,,,0.01,Wunderground v.1.15,2013-07-08 04:56:00,
2013-07-07 22:58:00,74.9,45.4,29.83,NNW,327,4.0,6.0,35,0.00,,,0.01,Wunderground v.1.15,2013-07-08 04:58:00,
2013-07-07 23:00:00,74.7,46.7,29.83,NW,325,4.0,4.0,37,0.00,,,0.01,Wunderground v.1.15,2013-07-08 05:00:00,
2013-07-07 23:02:00,74.6,46.6,29.83,North,11,4.0,4.0,37,0.00,,,0.01,Wunderground v.1.15,2013-07-08 05:02:00,
2013-07-07 23:04:00,74.2,48.3,29.83,NW,317,3.0,4.0,40,0.00,,,0.01,Wunderground v.1.15,2013-07-08 05:04:00,
2013-07-07 23:08:00,73.7,47.9,29.83,NNW,347,3.0,4.0,40,0.00,,,0.01,Wunderground v.1.15,2013-07-08 05:08:00,
2013-07-07 23:10:00,73.5,48.4,29.83,NNE,25,3.0,3.0,41,0.00,,,0.01,Wunderground v.1.15,2013-07-08 05:10:00,
2013-07-07 23:14:00,73.2,48.1,29.83,NE,42,3.0,3.0,41,0.00,,,0.01,Wunderground v.1.15,2013-07-08 05:14:00,
2013-07-07 23:18:00,72.8,49.0,29.84,NNE,28,3.0,4.0,43,0.00,,,0.01,Wunderground v.1.15,2013-07-08 05:18:00,
2013-07-07 23:20:00,72.5,48.7,29.84,NNE,23,3.0,3.0,43,0.00,,,0.01,Wunderground v.1.15,2013-07-08 05:20:00,
2013-07-07 23:24:00,72.3,48.5,29.84,NNE,19,3.0,3.0,43,0.00,,,0.01,Wunderground v.1.15,2013-07-08 05:24:00,
2013-07-07 23:26:00,72.1,48.4,29.84,NNE,24,2.0,3.0,43,0.00,,,0.01,Wunderground v.1.15,2013-07-08 05:26:00,
2013-07-07 23:28:00,72.1,48.4,29.84,NNE,22,2.0,3.0,43,0.00,,,0.01,Wunderground v.1.15,2013-07-08 05:28:00,
2013-07-07 23:30:00,72.1,48.4,29.84,NNE,24,1.0,1.0,43,0.00,,,0.01,Wunderground v.1.15,2013-07-08 05:30:00,
2013-07-07 23:32:00,72.1,48.4,29.84,NNE,24,1.0,1.0,43,0.00,,,0.01,Wunderground v.1.15,2013-07-08 05:32:00,
2013-07-07 23:34:00,72.0,47.6,29.84,NNE,24,0.0,1.0,42,0.00,,,0.01,Wunderground v.1.15,2013-07-08 05:34:00,
2013-07-07 23:36:00,72.0,48.3,29.84,NNE,24,0.0,1.0,43,0.00,,,0.01,Wunderground v.1.15,2013-07-08 05:36:00,
2013-07-07 23:40:00,71.8,48.1,29.84,NNE,24,0.0,0.0,43,0.00,,,0.01,Wunderground v.1.15,2013-07-08 05:40:00,
2013-07-07 23:41:00,71.8,48.7,29.84,NNE,24,0.0,0.0,44,0.00,,,0.01,Wunderground v.1.15,2013-07-08 05:41:00,
2013-07-07 23:48:00,71.5,49.0,29.84,NNE,24,0.0,0.0,45,0.00,,,0.01,Wunderground v.1.15,2013-07-08 05:48:00,
2013-07-07 23:50:00,71.5,49.0,29.84,NNE,24,0.0,0.0,45,0.00,,,0.01,Wunderground v.1.15,2013-07-08 05:50:00,
2013-07-07 23:53:00,71.3,48.9,29.84,NNE,24,0.0,0.0,45,0.00,,,0.01,Wunderground v.1.15,2013-07-08 05:53:00,
2013-07-07 23:56:00,71.3,49.4,29.84,NNE,24,0.0,0.0,46,0.00,,,0.01,Wunderground v.1.15,2013-07-08 05:56:00,